Whidbey Island, WA

6:03 AM PDT on March 26, 2017 (GMT -0700)
Whidbey Island Naval Air Station

Weather History for KNUW - January, 2014

Change the Weather History Date:

Monday, January 27, 2014

  Actual Average Record
Temperature  
Mean Temperature 41 °F -  
Max Temperature 43 °F 46 °F 57 °F (2016)
Min Temperature 39 °F 35 °F 23 °F (1997)
Degree Days  
Heating Degree Days 24    
Moisture  
Dew Point 37 °F    
Average Humidity 86    
Maximum Humidity 93    
Minimum Humidity 76    
Precipitation  
Precipitation 0.00 in - - ()
Sea Level Pressure  
Sea Level Pressure 30.20 in    
Wind  
Wind Speed 3 mph (ESE)    
Max Wind Speed 8 mph    
Max Gust Speed -    
Visibility 4 miles    
Events Fog    
Averages and records for this station are not official NWS values.
T = Trace of Precipitation, MM = Missing Value Source: NWS Daily Summary

Daily Weather History Graph

Daily Weather History Graph

Search for Another Location

Airport or City:

Trip Planner

Search our weather history database for the weather conditions in past years. The results will help you decide how hot, cold, wet, or windy it might be!

Date:

Astronomy

Jan. 27, 2014 Rise Set
Actual Time 7:45 AM PST 5:02 PM PST
Civil Twilight 7:11 AM PST 5:36 PM PST
Nautical Twilight 6:33 AM PST 6:14 PM PST
Astronomical Twilight 5:56 AM PST 6:50 PM PST
Moon 4:36 AM PST (1/27) 1:49 PM PST (1/27)
Length of Visible Light 10h 24m
Length of Day
9h 16m
Waning Crescent, 14% of the Moon is Illuminated
Jan 27
Waning Crescent
Jan 30
New
Feb 6
First Quarter
Feb 14
Full
Feb 22
Last Quarter

Hourly Weather History & Observations

Time (PST) Temp. Windchill Dew Point Humidity Pressure Visibility Wind Dir Wind Speed Gust Speed Precip Events Conditions
12:56 AM 41.0 °F - 37.9 °F 89% 30.16 in 0.2 mi Calm Calm - N/A Fog Fog
1:56 AM 41.0 °F - 37.9 °F 89% 30.15 in 0.2 mi Calm Calm - N/A Fog Fog
2:10 AM 41.0 °F 38.0 °F 37.0 °F 86% 30.14 in 0.2 mi NE 4.6 mph - N/A   Overcast
2:56 AM 41.0 °F - 37.9 °F 89% 30.16 in 0.2 mi Calm Calm - N/A Fog Fog
3:29 AM 41.0 °F - 37.9 °F 89% 30.16 in 0.2 mi Calm Calm - N/A   Overcast
3:56 AM 41.0 °F 38.0 °F 37.0 °F 86% 30.17 in 0.2 mi NNE 4.6 mph - N/A   Overcast
4:27 AM 41.0 °F - 39.0 °F 93% 30.16 in 0.8 mi Calm Calm - N/A   Overcast
4:56 AM 41.0 °F 39.0 °F 37.9 °F 89% 30.18 in 0.8 mi South 3.5 mph - N/A   Overcast
5:56 AM 41.0 °F - 37.9 °F 89% 30.19 in 0.8 mi Calm Calm - N/A   Overcast
6:56 AM 39.9 °F 37.8 °F 37.0 °F 89% 30.19 in 0.5 mi East 3.5 mph - N/A Fog Fog
7:44 AM 39.9 °F 36.7 °F 37.0 °F 89% 30.18 in 0.2 mi SE 4.6 mph - N/A Fog Fog
7:56 AM 39.9 °F 35.1 °F 37.0 °F 89% 30.19 in 0.2 mi ESE 6.9 mph - N/A Fog Fog
8:56 AM 39.0 °F 36.8 °F 36.0 °F 89% 30.21 in 0.5 mi SSE 3.5 mph - N/A Fog Fog
9:56 AM 39.0 °F 36.8 °F 36.0 °F 89% 30.22 in 0.8 mi SSE 3.5 mph - N/A   Overcast
10:56 AM 41.0 °F 38.0 °F 37.0 °F 86% 30.23 in 0.8 mi ESE 4.6 mph - N/A   Overcast
11:07 AM 41.0 °F 38.0 °F 37.0 °F 86% 30.23 in 1.0 mi SE 4.6 mph - N/A   Overcast
11:31 AM 41.0 °F - 37.9 °F 89% 30.24 in 1.0 mi Calm Calm - N/A   Overcast
11:56 AM 42.1 °F - 37.9 °F 85% 30.24 in 1.0 mi Calm Calm - N/A   Overcast
12:16 PM 43.0 °F 38.8 °F 37.0 °F 80% 30.21 in 2.0 mi East 6.9 mph - N/A   Overcast
12:56 PM 41.0 °F 36.4 °F 36.0 °F 82% 30.22 in 8.0 mi ESE 6.9 mph - N/A   Overcast
1:56 PM 43.0 °F 41.3 °F 36.0 °F 76% 30.21 in 10.0 mi ESE 3.5 mph - N/A   Overcast
2:56 PM 42.1 °F 38.4 °F 37.0 °F 82% 30.21 in 10.0 mi ESE 5.8 mph - N/A   Overcast
3:56 PM 43.0 °F 39.5 °F 37.0 °F 80% 30.20 in 10.0 mi ESE 5.8 mph - N/A   Overcast
4:56 PM 42.1 °F 38.4 °F 37.0 °F 82% 30.20 in 10.0 mi ESE 5.8 mph - N/A   Overcast
5:56 PM 41.0 °F 39.0 °F 36.0 °F 82% 30.19 in 10.0 mi ESE 3.5 mph - N/A   Overcast
6:56 PM 39.9 °F 37.8 °F 36.0 °F 86% 30.20 in 10.0 mi SSE 3.5 mph - N/A   Mostly Cloudy
7:56 PM 42.1 °F 39.2 °F 37.0 °F 82% 30.21 in 10.0 mi SE 4.6 mph - N/A   Mostly Cloudy
8:56 PM 42.1 °F 38.4 °F 37.9 °F 85% 30.22 in 9.0 mi SE 5.8 mph - N/A   Mostly Cloudy
9:56 PM 42.1 °F 38.4 °F 37.9 °F 85% 30.22 in 9.0 mi ESE 5.8 mph - N/A   Overcast
10:56 PM 43.0 °F 38.2 °F 39.0 °F 86% 30.22 in 9.0 mi ESE 8.1 mph - N/A   Overcast
11:56 PM 43.0 °F 39.5 °F 39.0 °F 86% 30.23 in 10.0 mi ESE 5.8 mph - N/A   Overcast